����������;��������(kWh)
2019-02-25 00:00;110,2
2019-02-25 00:15;109
2019-02-25 00:30;111,6
2019-02-25 00:45;110,8
2019-02-25 01:00;108
2019-02-25 01:15;102,2
2019-02-25 01:30;102,4
2019-02-25 01:45;103,7
2019-02-25 02:00;103,3
2019-02-25 02:15;100,65
2019-02-25 02:30;102,4
2019-02-25 02:45;101,3
2019-02-25 03:00;102,35
2019-02-25 03:15;99
2019-02-25 03:30;98,5
2019-02-25 03:45;98,9
2019-02-25 04:00;99,8
2019-02-25 04:15;98
2019-02-25 04:30;98,15
2019-02-25 04:45;98,7
2019-02-25 05:00;99,85
2019-02-25 05:15;97,05
2019-02-25 05:30;100,15
2019-02-25 05:45;100,55
2019-02-25 06:00;101,25
2019-02-25 06:15;95,3
2019-02-25 06:30;97,05
2019-02-25 06:45;95,75
2019-02-25 07:00;98,7
2019-02-25 07:15;106,95
2019-02-25 07:30;150,65
2019-02-25 07:45;154,45
2019-02-25 08:00;149,6
2019-02-25 08:15;177,85
2019-02-25 08:30;191,3
2019-02-25 08:45;210,8
2019-02-25 09:00;221,15
2019-02-25 09:15;232,45
2019-02-25 09:30;259,15
2019-02-25 09:45;267,65
2019-02-25 10:00;265,1
2019-02-25 10:15;264,35
2019-02-25 10:30;281,15
2019-02-25 10:45;288,2
2019-02-25 11:00;288
2019-02-25 11:15;286,15
2019-02-25 11:30;289,15
2019-02-25 11:45;289,7
2019-02-25 12:00;291
2019-02-25 12:15;289,15
2019-02-25 12:30;307,25
2019-02-25 12:45;300,3
2019-02-25 13:00;297,65
2019-02-25 13:15;262,5
2019-02-25 13:30;266,35
2019-02-25 13:45;243,9
2019-02-25 14:00;257,9
2019-02-25 14:15;242,55
2019-02-25 14:30;222,95
2019-02-25 14:45;224,45
2019-02-25 15:00;215,05
2019-02-25 15:15;201,8
2019-02-25 15:30;193,4
2019-02-25 15:45;188,6
2019-02-25 16:00;178,25
2019-02-25 16:15;174,2
2019-02-25 16:30;173,85
2019-02-25 16:45;169,6
2019-02-25 17:00;173,4
2019-02-25 17:15;169,1
2019-02-25 17:30;168,15
2019-02-25 17:45;168,25
2019-02-25 18:00;169,3
2019-02-25 18:15;170
2019-02-25 18:30;164,8
2019-02-25 18:45;160,55
2019-02-25 19:00;155,9
2019-02-25 19:15;156,65
2019-02-25 19:30;147,3
2019-02-25 19:45;144,25
2019-02-25 20:00;143,85
2019-02-25 20:15;145,2
2019-02-25 20:30;146,5
2019-02-25 20:45;141,75
2019-02-25 21:00;140,5
2019-02-25 21:15;131,35
2019-02-25 21:30;132,1
2019-02-25 21:45;127,45
2019-02-25 22:00;126,65
2019-02-25 22:15;128,95
2019-02-25 22:30;127,6
2019-02-25 22:45;126,15
2019-02-25 23:00;129,25
2019-02-25 23:15;126,85
2019-02-25 23:30;125,05
2019-02-25 23:45;125,1
2019-02-26 00:00;114,7
2019-02-26 00:15;113,2
2019-02-26 00:30;114,35
2019-02-26 00:45;113,55
2019-02-26 01:00;112,1
2019-02-26 01:15;110,65
2019-02-26 01:30;110,5
2019-02-26 01:45;113,55
2019-02-26 02:00;111,5
2019-02-26 02:15;109,1
2019-02-26 02:30;108,2
2019-02-26 02:45;106,9
2019-02-26 03:00;111,95
2019-02-26 03:15;110,85
2019-02-26 03:30;109,95
2019-02-26 03:45;108,15
2019-02-26 04:00;107,05
2019-02-26 04:15;110,35
2019-02-26 04:30;108,2
2019-02-26 04:45;105,75
2019-02-26 05:00;105,1
2019-02-26 05:15;106,9
2019-02-26 05:30;107
2019-02-26 05:45;103,55
2019-02-26 06:00;106,4
2019-02-26 06:15;103,1
2019-02-26 06:30;103
2019-02-26 06:45;103,7
2019-02-26 07:00;105,35
2019-02-26 07:15;109,4
2019-02-26 07:30;105,35
2019-02-26 07:45;105
2019-02-26 08:00;104,05
2019-02-26 08:15;105,8
2019-02-26 08:30;107,35
2019-02-26 08:45;107,75
2019-02-26 09:00;111
2019-02-26 09:15;116,65
2019-02-26 09:30;123,85
2019-02-26 09:45;130,1
2019-02-26 10:00;133
2019-02-26 10:15;136,2
2019-02-26 10:30;142,65
2019-02-26 10:45;146,6
2019-02-26 11:00;154,45
2019-02-26 11:15;160,5
2019-02-26 11:30;168,5
2019-02-26 11:45;175
2019-02-26 12:00;176,05
2019-02-26 12:15;196,1
2019-02-26 12:30;244,2
2019-02-26 12:45;193,7
2019-02-26 13:00;192,1
2019-02-26 13:15;186,75
2019-02-26 13:30;185
2019-02-26 13:45;188,45
2019-02-26 14:00;182,5
2019-02-26 14:15;173
2019-02-26 14:30;181,9
2019-02-26 14:45;179,9
2019-02-26 15:00;178,25
2019-02-26 15:15;178,9
2019-02-26 15:30;179,75
2019-02-26 15:45;178
2019-02-26 16:00;167,75
2019-02-26 16:15;172
2019-02-26 16:30;169,75
2019-02-26 16:45;161,45
2019-02-26 17:00;170
2019-02-26 17:15;161,55
2019-02-26 17:30;151,65
2019-02-26 17:45;162,85
2019-02-26 18:00;151,75
2019-02-26 18:15;157,3
2019-02-26 18:30;153,55
2019-02-26 18:45;155,45
2019-02-26 19:00;156,3
2019-02-26 19:15;160,25
2019-02-26 19:30;153,05
2019-02-26 19:45;148,05
2019-02-26 20:00;154,85
2019-02-26 20:15;152
2019-02-26 20:30;153
2019-02-26 20:45;153,4
2019-02-26 21:00;149,85
2019-02-26 21:15;145,8
2019-02-26 21:30;139,85
2019-02-26 21:45;131,2
2019-02-26 22:00;124,55
2019-02-26 22:15;123,5
2019-02-26 22:30;122,95
2019-02-26 22:45;121,3
2019-02-26 23:00;124,6
2019-02-26 23:15;119,5
2019-02-26 23:30;121,35
2019-02-26 23:45;126,75
2019-02-27 00:00;113,5
2019-02-27 00:15;111,25
2019-02-27 00:30;111,55
2019-02-27 00:45;110,4
2019-02-27 01:00;107,9
2019-02-27 01:15;105,8
2019-02-27 01:30;106,6
2019-02-27 01:45;110,5
2019-02-27 02:00;105,8
2019-02-27 02:15;106,05
2019-02-27 02:30;108,55
2019-02-27 02:45;107
2019-02-27 03:00;106,05
2019-02-27 03:15;109,15
2019-02-27 03:30;108,6
2019-02-27 03:45;106
2019-02-27 04:00;103,45
2019-02-27 04:15;103,35
2019-02-27 04:30;102,35
2019-02-27 04:45;103,85
2019-02-27 05:00;105,65
2019-02-27 05:15;104,3
2019-02-27 05:30;105,7
2019-02-27 05:45;102,6
2019-02-27 06:00;105,85
2019-02-27 06:15;105,55
2019-02-27 06:30;102,7
2019-02-27 06:45;105,2
2019-02-27 07:00;108,9
2019-02-27 07:15;107,55
2019-02-27 07:30;161,45
2019-02-27 07:45;130,65
2019-02-27 08:00;145,6
2019-02-27 08:15;155,1
2019-02-27 08:30;180,85
2019-02-27 08:45;207,85
2019-02-27 09:00;210,8
2019-02-27 09:15;227,7
2019-02-27 09:30;234
2019-02-27 09:45;240,2
2019-02-27 10:00;271,85
2019-02-27 10:15;309,05
2019-02-27 10:30;321,1
2019-02-27 10:45;322,25
2019-02-27 11:00;341,05
2019-02-27 11:15;346,5
2019-02-27 11:30;362,25
2019-02-27 11:45;358,4
2019-02-27 12:00;350,75
2019-02-27 12:15;349,55
2019-02-27 12:30;353,7
2019-02-27 12:45;349,35
2019-02-27 13:00;349
2019-02-27 13:15;346,65
2019-02-27 13:30;345,25
2019-02-27 13:45;339,2
2019-02-27 14:00;339,6
2019-02-27 14:15;333,05
2019-02-27 14:30;330,95
2019-02-27 14:45;319,05
2019-02-27 15:00;319,85
2019-02-27 15:15;308,2
2019-02-27 15:30;309,5
2019-02-27 15:45;301,05
2019-02-27 16:00;296,05
2019-02-27 16:15;300,15
2019-02-27 16:30;284,7
2019-02-27 16:45;269,75
2019-02-27 17:00;260,6
2019-02-27 17:15;255,65
2019-02-27 17:30;240
2019-02-27 17:45;250,1
2019-02-27 18:00;236,1
2019-02-27 18:15;239,5
2019-02-27 18:30;237,65
2019-02-27 18:45;236,5
2019-02-27 19:00;237,9
2019-02-27 19:15;231,05
2019-02-27 19:30;226,9
2019-02-27 19:45;226,15
2019-02-27 20:00;206,3
2019-02-27 20:15;194,1
2019-02-27 20:30;188
2019-02-27 20:45;180,65
2019-02-27 21:00;179,45
2019-02-27 21:15;175,5
2019-02-27 21:30;168,5
2019-02-27 21:45;160,25
2019-02-27 22:00;162,15
2019-02-27 22:15;163,85
2019-02-27 22:30;160,65
2019-02-27 22:45;159,6
2019-02-27 23:00;165
2019-02-27 23:15;157,8
2019-02-27 23:30;150,4
2019-02-27 23:45;147,35
2019-02-28 00:00;140,55
2019-02-28 00:15;139
2019-02-28 00:30;137,65
2019-02-28 00:45;136,35
2019-02-28 01:00;129,15
2019-02-28 01:15;130,9
2019-02-28 01:30;132,25
2019-02-28 01:45;136,65
2019-02-28 02:00;136,5
2019-02-28 02:15;133,85
2019-02-28 02:30;130,6
2019-02-28 02:45;132,4
2019-02-28 03:00;132,3
2019-02-28 03:15;127,3
2019-02-28 03:30;131,1
2019-02-28 03:45;131,8
2019-02-28 04:00;137
2019-02-28 04:15;135,55
2019-02-28 04:30;134,9
2019-02-28 04:45;137,45
2019-02-28 05:00;139,5
2019-02-28 05:15;142,4
2019-02-28 05:30;142,1
2019-02-28 05:45;140,55
2019-02-28 06:00;140,25
2019-02-28 06:15;133,15
2019-02-28 06:30;132,3
2019-02-28 06:45;135,15
2019-02-28 07:00;136,6
2019-02-28 07:15;138,15
2019-02-28 07:30;190,05
2019-02-28 07:45;173,45
2019-02-28 08:00;169,4
2019-02-28 08:15;177,65
2019-02-28 08:30;195,5
2019-02-28 08:45;223,7
2019-02-28 09:00;228,25
2019-02-28 09:15;245,75
2019-02-28 09:30;258,1
2019-02-28 09:45;259,45
2019-02-28 10:00;269,75
2019-02-28 10:15;287,35
2019-02-28 10:30;290,85
2019-02-28 10:45;290,85
2019-02-28 11:00;297,6
2019-02-28 11:15;309,85
2019-02-28 11:30;321,6
2019-02-28 11:45;315,25
2019-02-28 12:00;315,1
2019-02-28 12:15;315,75
2019-02-28 12:30;314,4
2019-02-28 12:45;307,5
2019-02-28 13:00;303,15
2019-02-28 13:15;291,95
2019-02-28 13:30;282,55
2019-02-28 13:45;281,35
2019-02-28 14:00;270,55
2019-02-28 14:15;259,25
2019-02-28 14:30;267,6
2019-02-28 14:45;260,55
2019-02-28 15:00;253,55
2019-02-28 15:15;261,45
2019-02-28 15:30;244,55
2019-02-28 15:45;239,05
2019-02-28 16:00;232,55
2019-02-28 16:15;232,95
2019-02-28 16:30;228,75
2019-02-28 16:45;224,25
2019-02-28 17:00;221,65
2019-02-28 17:15;207,8
2019-02-28 17:30;201,4
2019-02-28 17:45;196,7
2019-02-28 18:00;195,1
2019-02-28 18:15;191,05
2019-02-28 18:30;192,2
2019-02-28 18:45;190,25
2019-02-28 19:00;181,35
2019-02-28 19:15;180,4
2019-02-28 19:30;179,85
2019-02-28 19:45;175,85
2019-02-28 20:00;175,3
2019-02-28 20:15;172,75
2019-02-28 20:30;172,45
2019-02-28 20:45;162,95
2019-02-28 21:00;162,4
2019-02-28 21:15;165,3
2019-02-28 21:30;163,25
2019-02-28 21:45;155,05
2019-02-28 22:00;150,65
2019-02-28 22:15;140,55
2019-02-28 22:30;138,55
2019-02-28 22:45;135,85
2019-02-28 23:00;141,2
2019-02-28 23:15;135,4
2019-02-28 23:30;135,35
2019-02-28 23:45;137,6
2019-03-01 00:00;125,2
2019-03-01 00:15;126,1
2019-03-01 00:30;123,65
2019-03-01 00:45;128,4
2019-03-01 01:00;126,05
2019-03-01 01:15;127,9
2019-03-01 01:30;127,05
2019-03-01 01:45;127,8
2019-03-01 02:00;130,6
2019-03-01 02:15;128,1
2019-03-01 02:30;129,8
2019-03-01 02:45;129,4
2019-03-01 03:00;129,95
2019-03-01 03:15;127,35
2019-03-01 03:30;123,8
2019-03-01 03:45;124,4
2019-03-01 04:00;127,75
2019-03-01 04:15;123,05
2019-03-01 04:30;127,05
2019-03-01 04:45;129,8
2019-03-01 05:00;127,25
2019-03-01 05:15;122,6
2019-03-01 05:30;123,45
2019-03-01 05:45;127,1
2019-03-01 06:00;123,8
2019-03-01 06:15;126,55
2019-03-01 06:30;124,1
2019-03-01 06:45;123,7
2019-03-01 07:00;125,75
2019-03-01 07:15;125,4
2019-03-01 07:30;182,15
2019-03-01 07:45;144,5
2019-03-01 08:00;161,7
2019-03-01 08:15;169,35
2019-03-01 08:30;185,75
2019-03-01 08:45;195,55
2019-03-01 09:00;194,3
2019-03-01 09:15;212,5
2019-03-01 09:30;228,85
2019-03-01 09:45;234,8
2019-03-01 10:00;241
2019-03-01 10:15;247,65
2019-03-01 10:30;250,6
2019-03-01 10:45;236,8
2019-03-01 11:00;245,1
2019-03-01 11:15;255,7
2019-03-01 11:30;255,45
2019-03-01 11:45;252,2
2019-03-01 12:00;267,7
2019-03-01 12:15;273,05
2019-03-01 12:30;272,75
2019-03-01 12:45;260,05
2019-03-01 13:00;264,4
2019-03-01 13:15;271,35
2019-03-01 13:30;256
2019-03-01 13:45;257,9
2019-03-01 14:00;251,7
2019-03-01 14:15;240,2
2019-03-01 14:30;246,4
2019-03-01 14:45;241,35
2019-03-01 15:00;240,45
2019-03-01 15:15;235,65
2019-03-01 15:30;220,55
2019-03-01 15:45;213,65
2019-03-01 16:00;197,05
2019-03-01 16:15;198,8
2019-03-01 16:30;192,75
2019-03-01 16:45;186,25
2019-03-01 17:00;168,9
2019-03-01 17:15;179,2
2019-03-01 17:30;169,15
2019-03-01 17:45;174,1
2019-03-01 18:00;166,5
2019-03-01 18:15;165,65
2019-03-01 18:30;164,65
2019-03-01 18:45;164,95
2019-03-01 19:00;162,3
2019-03-01 19:15;159,5
2019-03-01 19:30;163,35
2019-03-01 19:45;157,45
2019-03-01 20:00;147,8
2019-03-01 20:15;138,75
2019-03-01 20:30;133,2
2019-03-01 20:45;135,05
2019-03-01 21:00;130,15
2019-03-01 21:15;127,5
2019-03-01 21:30;125,85
2019-03-01 21:45;121,1
2019-03-01 22:00;111,3
2019-03-01 22:15;111,85
2019-03-01 22:30;110,3
2019-03-01 22:45;111,8
2019-03-01 23:00;117,2
2019-03-01 23:15;110,35
2019-03-01 23:30;113,55
2019-03-01 23:45;113,25
2019-03-02 00:00;102,15
2019-03-02 00:15;101,55
2019-03-02 00:30;103,6
2019-03-02 00:45;101,3
2019-03-02 01:00;101,55
2019-03-02 01:15;101,6
2019-03-02 01:30;100,45
2019-03-02 01:45;99,15
2019-03-02 02:00;100,25
2019-03-02 02:15;100,1
2019-03-02 02:30;98,15
2019-03-02 02:45;99,25
2019-03-02 03:00;99,1
2019-03-02 03:15;101,7
2019-03-02 03:30;98,7
2019-03-02 03:45;97,3
2019-03-02 04:00;97,7
2019-03-02 04:15;97,35
2019-03-02 04:30;102,25
2019-03-02 04:45;97,6
2019-03-02 05:00;99,15
2019-03-02 05:15;97,9
2019-03-02 05:30;97,65
2019-03-02 05:45;98,2
2019-03-02 06:00;96,95
2019-03-02 06:15;98,7
2019-03-02 06:30;96,65
2019-03-02 06:45;97
2019-03-02 07:00;90,1
2019-03-02 07:15;95,6
2019-03-02 07:30;94,2
2019-03-02 07:45;92,65
2019-03-02 08:00;93,35
2019-03-02 08:15;95,35
2019-03-02 08:30;94,65
2019-03-02 08:45;95,05
2019-03-02 09:00;93,3
2019-03-02 09:15;93,2
2019-03-02 09:30;94,9
2019-03-02 09:45;95
2019-03-02 10:00;94,75
2019-03-02 10:15;94,75
2019-03-02 10:30;96,85
2019-03-02 10:45;104,8
2019-03-02 11:00;101,75
2019-03-02 11:15;99,9
2019-03-02 11:30;102,05
2019-03-02 11:45;101,55
2019-03-02 12:00;99,35
2019-03-02 12:15;102,8
2019-03-02 12:30;107,1
2019-03-02 12:45;107,85
2019-03-02 13:00;101,85
2019-03-02 13:15;102,6
2019-03-02 13:30;105,1
2019-03-02 13:45;106,35
2019-03-02 14:00;102,25
2019-03-02 14:15;104,8
2019-03-02 14:30;107
2019-03-02 14:45;105,5
2019-03-02 15:00;105,6
2019-03-02 15:15;105,7
2019-03-02 15:30;110,8
2019-03-02 15:45;106,15
2019-03-02 16:00;101,4
2019-03-02 16:15;98,65
2019-03-02 16:30;101,3
2019-03-02 16:45;98,75
2019-03-02 17:00;100,35
2019-03-02 17:15;103,85
2019-03-02 17:30;105,8
2019-03-02 17:45;111,45
2019-03-02 18:00;111,35
2019-03-02 18:15;116
2019-03-02 18:30;115,75
2019-03-02 18:45;115,95
2019-03-02 19:00;115,9
2019-03-02 19:15;117,75
2019-03-02 19:30;117,1
2019-03-02 19:45;117,15
2019-03-02 20:00;114,65
2019-03-02 20:15;113,75
2019-03-02 20:30;116,05
2019-03-02 20:45;111,35
2019-03-02 21:00;108,4
2019-03-02 21:15;104,15
2019-03-02 21:30;105,3
2019-03-02 21:45;99,25
2019-03-02 22:00;99,45
2019-03-02 22:15;99,05
2019-03-02 22:30;100
2019-03-02 22:45;106,45
2019-03-02 23:00;113,1
2019-03-02 23:15;108,5
2019-03-02 23:30;111,3
2019-03-02 23:45;115,95
2019-03-03 00:00;103,8
2019-03-03 00:15;102,75
2019-03-03 00:30;104,85
2019-03-03 00:45;103,85
2019-03-03 01:00;104
2019-03-03 01:15;103,8
2019-03-03 01:30;101,05
2019-03-03 01:45;104,15
2019-03-03 02:00;103
2019-03-03 02:15;100,9
2019-03-03 02:30;102,3
2019-03-03 02:45;102,25
2019-03-03 03:00;100,35
2019-03-03 03:15;95,2
2019-03-03 03:30;91,6
2019-03-03 03:45;92
2019-03-03 04:00;94,2
2019-03-03 04:15;94,7
2019-03-03 04:30;93,3
2019-03-03 04:45;93,4
2019-03-03 05:00;93,75
2019-03-03 05:15;92,35
2019-03-03 05:30;92,45
2019-03-03 05:45;91,95
2019-03-03 06:00;91,85
2019-03-03 06:15;90,4
2019-03-03 06:30;91,1
2019-03-03 06:45;88,75
2019-03-03 07:00;83,6
2019-03-03 07:15;80,7
2019-03-03 07:30;80,1
2019-03-03 07:45;80,2
2019-03-03 08:00;82,3
2019-03-03 08:15;89,3
2019-03-03 08:30;91,8
2019-03-03 08:45;92,3
2019-03-03 09:00;93,95
2019-03-03 09:15;95,05
2019-03-03 09:30;94,45
2019-03-03 09:45;93,4
2019-03-03 10:00;92,8
2019-03-03 10:15;90,4
2019-03-03 10:30;89,15
2019-03-03 10:45;68,65
2019-03-03 11:00;95,4
2019-03-03 11:15;96,15
2019-03-03 11:30;93,9
2019-03-03 11:45;91,7
2019-03-03 12:00;91
2019-03-03 12:15;96,2
2019-03-03 12:30;94,55
2019-03-03 12:45;90,1
2019-03-03 13:00;90,55
2019-03-03 13:15;95,5
2019-03-03 13:30;89,6
2019-03-03 13:45;90,35
2019-03-03 14:00;91,45
2019-03-03 14:15;89,1
2019-03-03 14:30;93,75
2019-03-03 14:45;96,7
2019-03-03 15:00;92,5
2019-03-03 15:15;91,3
2019-03-03 15:30;91,25
2019-03-03 15:45;86,1
2019-03-03 16:00;87,2
2019-03-03 16:15;86,1
2019-03-03 16:30;85,35
2019-03-03 16:45;87,75
2019-03-03 17:00;89,9
2019-03-03 17:15;95,05
2019-03-03 17:30;94,9
2019-03-03 17:45;95,7
2019-03-03 18:00;93,2
2019-03-03 18:15;91,7
2019-03-03 18:30;102,95
2019-03-03 18:45;109,7
2019-03-03 19:00;113,85
2019-03-03 19:15;108,6
2019-03-03 19:30;109,15
2019-03-03 19:45;106,25
2019-03-03 20:00;106,45
2019-03-03 20:15;104,1
2019-03-03 20:30;100,85
2019-03-03 20:45;104,6
2019-03-03 21:00;105,9
2019-03-03 21:15;98,75
2019-03-03 21:30;97,1
2019-03-03 21:45;97,5
2019-03-03 22:00;96,35
2019-03-03 22:15;89,55
2019-03-03 22:30;87,1
2019-03-03 22:45;85,25
2019-03-03 23:00;97
2019-03-03 23:15;95,3
2019-03-03 23:30;98,7
2019-03-03 23:45;103,25

